Yakutat, AK

8:12 AM AKST on December 10, 2016 (GMT -0900)
Yakutat

Weather History for PAYA - March, 2013

Change the Weather History Date:

Sunday, March 24, 2013

  Actual Average Record
Temperature  
Mean Temperature 35 °F 33 °F  
Max Temperature 37 °F 40 °F 54 °F (1981)
Min Temperature 33 °F 26 °F -1 °F (1967)
Degree Days  
Heating Degree Days 30 32  
Month to date heating degree days 875 802  
Since 1 July heating degree days 7120 6931  
Cooling Degree Days 0    
Month to date cooling degree days 0  
Year to date cooling degree days 0  
Moisture  
Dew Point 34 °F    
Average Humidity 0    
Maximum Humidity 0    
Minimum Humidity 0    
Precipitation  
Precipitation 0.95 in 0.34 in 2.95 in (1987)
Month to date precipitation 3.39 8.83  
Year to date precipitation 30.04 33.35  
Snow  
Snow T in 0.90 in 13.50 in (2012)
Month to date snowfall 22.5 21.6  
Since 1 July snowfall 138.0 123.8  
Snow Depth 28.00 in    
Sea Level Pressure  
Sea Level Pressure 29.91 in    
Wind  
Wind Speed 9 mph (East)    
Max Wind Speed 14 mph    
Max Gust Speed 21 mph    
Visibility 7 miles    
Events Rain , Snow    
T = Trace of Precipitation, MM = Missing Value Source: NWS Daily Summary

Daily Weather History Graph

Daily Weather History Graph

Search for Another Location

Airport or City:

Trip Planner

Search our weather history database for the weather conditions in past years. The results will help you decide how hot, cold, wet, or windy it might be!

Date:

Astronomy

Mar. 24, 2013 Rise Set
Actual Time 7:07 AM AKDT 7:43 PM AKDT
Civil Twilight 6:25 AM AKDT 8:25 PM AKDT
Nautical Twilight 5:35 AM AKDT 9:15 PM AKDT
Astronomical Twilight 4:40 AM AKDT 10:11 PM AKDT
Moon 4:54 PM AKDT (3/24) 5:54 AM AKDT (3/24)
Length of Visible Light 13h 59m
Length of Day
12h 36m
Waxing Gibbous, 92% of the Moon is Illuminated
Mar 24
Waxing Gibbous
Mar 27
Full
Apr 2
Last Quarter
Apr 10
New
Apr 18
First Quarter

Hourly Weather History & Observations

Time (AKDT) Temp. Windchill Dew Point Humidity Pressure Visibility Wind Dir Wind Speed Gust Speed Precip Events Conditions
12:14 AM 33.8 °F 26.4 °F 32.0 °F 93% 30.02 in 2.5 mi East 9.2 mph - 0.01 in Snow Light Snow
12:35 AM 33.8 °F 26.4 °F 32.0 °F 93% 30.02 in 4.0 mi East 9.2 mph - 0.01 in Snow Light Snow
12:44 AM 33.8 °F 27.0 °F 32.0 °F 93% 30.01 in 4.0 mi East 8.1 mph - 0.02 in Snow Light Snow
12:53 AM 33.1 °F 26.1 °F 32.0 °F 96% 30.02 in 4.0 mi East 8.1 mph - 0.02 in Snow Light Snow
1:03 AM 33.8 °F 27.0 °F 32.0 °F 93% 30.01 in 4.0 mi East 8.1 mph - 0.00 in Rain , Snow Light Rain
1:53 AM 34.0 °F 26.6 °F 32.0 °F 92% 30.01 in 10.0 mi East 9.2 mph 17.3 mph 0.02 in Rain Light Rain
2:10 AM 33.8 °F 27.0 °F 32.0 °F 93% 30.00 in 10.0 mi East 8.1 mph - 0.00 in Rain Light Rain
2:38 AM 33.8 °F 26.4 °F 32.0 °F 93% 30.00 in 10.0 mi East 9.2 mph - 0.01 in Rain Light Rain
2:53 AM 34.0 °F 27.2 °F 33.1 °F 96% 29.99 in 10.0 mi East 8.1 mph - 0.01 in Rain Light Rain
3:03 AM 33.8 °F 26.4 °F 33.8 °F 100% 29.99 in 10.0 mi East 9.2 mph - 0.00 in Rain Light Rain
3:53 AM 34.0 °F 26.6 °F 33.1 °F 96% 29.98 in 10.0 mi East 9.2 mph - 0.02 in Rain Light Rain
4:53 AM 34.0 °F 28.0 °F 33.1 °F 96% 29.98 in 8.0 mi East 6.9 mph - 0.02 in Rain Light Rain
5:53 AM 33.1 °F 25.5 °F 33.1 °F 100% 29.96 in 5.0 mi East 9.2 mph - 0.04 in Rain Light Rain
6:53 AM 34.0 °F 27.2 °F 33.1 °F 96% 29.95 in 5.0 mi East 8.1 mph - 0.06 in Rain , Snow Light Rain
7:53 AM 33.1 °F 25.5 °F 33.1 °F 100% 29.95 in 3.0 mi East 9.2 mph - 0.05 in Snow Light Snow
8:04 AM 33.8 °F 27.7 °F 32.0 °F 93% 29.94 in 2.0 mi East 6.9 mph - 0.00 in Snow Light Snow
8:21 AM 33.8 °F 27.0 °F 33.8 °F 100% 29.94 in 4.0 mi East 8.1 mph - 0.01 in Snow Light Snow
8:53 AM 33.1 °F 26.1 °F 33.1 °F 100% 29.94 in 3.0 mi East 8.1 mph - 0.03 in Rain , Snow Light Rain
9:11 AM 33.8 °F 27.7 °F 33.8 °F 100% 29.93 in 5.0 mi East 6.9 mph - 0.01 in Rain , Snow Light Rain
9:53 AM 34.0 °F 28.8 °F 33.1 °F 96% 29.93 in 9.0 mi East 5.8 mph - 0.03 in Rain , Snow Light Rain
10:53 AM 36.0 °F 30.3 °F 35.1 °F 97% 29.93 in 7.0 mi East 6.9 mph - 0.02 in Rain Light Rain
11:53 AM 36.0 °F 29.6 °F 35.1 °F 97% 29.92 in 7.0 mi East 8.1 mph - 0.02 in Rain Light Rain
12:53 PM 36.0 °F 29.0 °F 34.0 °F 93% 29.92 in 4.0 mi ESE 9.2 mph - 0.02 in Rain Light Rain
1:30 PM 35.6 °F 28.0 °F 33.8 °F 93% 29.91 in 7.0 mi East 10.4 mph 16.1 mph 0.03 in Rain Light Rain
1:53 PM 36.0 °F 29.0 °F 34.0 °F 93% 29.91 in 6.0 mi East 9.2 mph - 0.05 in Rain Light Rain
2:23 PM 35.6 °F 29.2 °F 33.8 °F 93% 29.90 in 7.0 mi East 8.1 mph - 0.03 in Rain Light Rain
2:38 PM 35.6 °F 28.6 °F 33.8 °F 93% 29.89 in 9.0 mi East 9.2 mph - 0.05 in Rain Light Rain
2:53 PM 35.1 °F 27.4 °F 34.0 °F 96% 29.88 in 6.0 mi East 10.4 mph - 0.05 in Rain Light Rain
3:53 PM 36.0 °F 29.0 °F 34.0 °F 93% 29.86 in 5.0 mi East 9.2 mph - 0.05 in Rain Light Rain
4:53 PM 36.0 °F 29.0 °F 35.1 °F 97% 29.83 in 6.0 mi East 9.2 mph - 0.06 in Rain Light Rain
5:53 PM 36.0 °F 28.0 °F 35.1 °F 97% 29.82 in 6.0 mi East 11.5 mph - 0.03 in Rain Light Rain
6:53 PM 36.0 °F 29.0 °F 35.1 °F 97% 29.79 in 6.0 mi East 9.2 mph 16.1 mph 0.03 in Rain Light Rain
7:53 PM 37.0 °F 29.8 °F 35.1 °F 93% 29.78 in 6.0 mi East 10.4 mph - 0.05 in Rain Light Rain
8:53 PM 37.0 °F 29.3 °F 34.0 °F 89% 29.76 in 9.0 mi East 11.5 mph - 0.04 in Rain Light Rain
9:53 PM 36.0 °F 29.6 °F 35.1 °F 97% 29.73 in 10.0 mi East 8.1 mph - 0.07 in Rain Light Rain
10:53 PM 36.0 °F 30.3 °F 35.1 °F 97% 29.70 in 9.0 mi East 6.9 mph - 0.06 in Rain Light Rain
11:53 PM 36.0 °F 31.1 °F 35.1 °F 97% 29.68 in 10.0 mi East 5.8 mph - 0.04 in Rain Light Rain